Regional Weather Roundup
Issued by NWS

Home | Current Version | Previous Version | Graphics & Text | Print | Product List | Glossary On
Versions: 1 2 3 4 5 6 7 8 9 10 11 12 13 14 15 16 17 18 19 20 21 22 23 24 25 26 27 28 29 30 31 32 33 34 35 36 37 38 39 40 41 42 43 44 45 46 47 48 49 50
000
ASUS43 KLSX 231807
RWRMO

WEATHER SUMMARY FOR MISSOURI
NATIONAL WEATHER SERVICE SPRINGFIELD MO
100 PM CDT MON APR 23 2018

NOTE: "FAIR" INDICATES FEW OR NO CLOUDS BELOW 12,000 FEET WITH NO
       SIGNIFICANT WEATHER AND/OR OBSTRUCTIONS TO VISIBILITY.
       CURRENT SKY AND/OR WEATHER CONDITIONS ARE NOT AVAILABLE FOR
       CHILLICOTHE AND FARMINGTON.

MOZ001>031-035>038-043-044-053-054-231900-
...NORTHERN AND WESTERN MISSOURI...

CITY           SKY/WX    TMP DP  RH WIND       PRES   REMARKS
KANSAS CTY INT MOSUNNY   72  33  24 NE15      30.09F
6HR MIN TEMP:  52; 6HR MAX TEMP:  72;

KANSAS C DTWN  SUNNY     72  32  23 NE13G22   30.06F
6HR MIN TEMP:  57; 6HR MAX TEMP:  72;

LEE`S SUMMIT   SUNNY     71  32  23 NE17G25   30.07F
6HR MIN TEMP:  54; 6HR MAX TEMP:  72;

ST JOSEPH      SUNNY     72  35  25 N14G22    30.10F
6HR MIN TEMP:  50; 6HR MAX TEMP:  73;

CHILLICOTHE      N/A     73  35  25 N13G23    30.08F
6HR MIN TEMP:  52; 6HR MAX TEMP:  73;

KIRKSVILLE     PTSUNNY   70  37  29 NE16      30.08F
6HR MIN TEMP:  49; 6HR MAX TEMP:  70;


$$
MOZ066>068-077>081-088>096-101>105-231900-
...SOUTHWEST MISSOURI...

CITY           SKY/WX    TMP DP  RH WIND       PRES   REMARKS
SPRINGFIELD    MOSUNNY   66  47  50 N16G29    29.96F
6HR MIN TEMP:  52; 6HR MAX TEMP:  66; 6HR PCP: TRACE;

JOPLIN         SUNNY     66  48  52 N16       30.03F
6HR MIN TEMP:  52; 6HR MAX TEMP:  67;

BRANSON        PTSUNNY   66  46  48 N20G26    29.94F

$$
MOZ032>034-039>042-045>050-055>058-069>072-231900-
...CENTRAL MISSOURI...

CITY           SKY/WX    TMP DP  RH WIND       PRES   REMARKS
COLUMBIA       MOSUNNY   69  41  36 NE17G28   30.00F
6HR MIN TEMP:  54; 6HR MAX TEMP:  69;

JEFFERSON CITY MOSUNNY   68  41  37 NE14G26   29.99F
6HR MIN TEMP:  55; 6HR MAX TEMP:  69; 6HR PCP: TRACE;

ROLLA          CLOUDY    55  47  74 NE17      29.99F
6HR MIN TEMP:  51; 6HR MAX TEMP:  59;

SEDALIA        MOSUNNY   65  37  35 N14       30.04F
6HR MIN TEMP:  53; 6HR MAX TEMP:  66;

WARRENSBURG    MOSUNNY   72  32  23 NE13G18   30.04F
OSAGE BEACH    PTSUNNY   68  47  46 NE17      29.98F

$$
MOZ051-052-059>065-231900-
...EAST CENTRAL MISSOURI...

CITY           SKY/WX    TMP DP  RH WIND       PRES   REMARKS
ST LOUIS INTL  CLOUDY    55  53  93 NE15      30.00S
6HR MIN TEMP:  49; 6HR MAX TEMP:  55; 6HR PCP:  0.05;

SPIRIT OF STL  CLOUDY    55  53  93 NE13      29.99F
6HR MIN TEMP:  49; 6HR MAX TEMP:  55; 6HR PCP:  0.03;

ST CHARLES     CLOUDY    58  54  86 NE10      29.99F
6HR MIN TEMP:  51; 6HR MAX TEMP:  58; 6HR PCP:  0.03;


$$
MOZ072>076-082>087-097>100-106>115-231900-
...SOUTH CENTRAL AND SOUTHEAST MISSOURI...

CITY           SKY/WX    TMP DP  RH WIND       PRES   REMARKS
CAPE GIRARDEAU PTSUNNY   66  58  75 E13       29.87S
6HR MIN TEMP:  53; 6HR MAX TEMP:  66; 6HR PCP:  0.10;

FARMINGTON     CLOUDY    54  53  97 N9        29.94S
6HR MIN TEMP:  47; 6HR MAX TEMP:  54; 6HR PCP:  0.07;

POPLAR BLUFF   CLOUDY    56  54  93 NE3       29.86R
6HR MIN TEMP:  52; 6HR MAX TEMP:  56; 6HR PCP:  0.06;

WEST PLAINS    CLOUDY    53  50  89 N16G24    29.92F
6HR MIN TEMP:  50; 6HR MAX TEMP:  54; 6HR PCP:  0.03;


$$




USA.gov is the U.S. government's official web portal to all federal, state and local government web resources and services.